www.pogodaiklimat.ru

Погода и климат >> Архив погоды >> Россия >> Краснодарский край >> Красная Поляна


АРХИВ ПОГОДЫ в Красной Поляне

Время (UTC), дата Ветер
(напр.,м/с)
 
Видим.   Явления Облачность Т
(С)
Тd
(С)
f
(%)
Тe
(С)
Тes
(С)
Комфортность P
(гПа)
Po
(гПа)
Тmin
(С)
Tmax
(С)
R
(мм)
R24
(мм)
S
(см)
00 14.01 штиль 0 1900 м слаб. ливневой снег 10/10 90 м
[Cb cap]
+0.3 +0.3 100 -1 -1 1009.0 940.7
03 14.01 штиль 0 3000 м слаб. ливневой снег 10/10 200 м
[Cb cap]
+0.2 +0.2 100 -1 -1 1008.1 939.8 +0.1 8 37
06 14.01 штиль 0 6000 м в посл. час ливневой снег 10/10 60 м
[St]
+0.4 +0.4 100 -1 -1 1008.3 940.1
09 14.01 СВ 1 7000 м слаб. ливневой снег 10/10 1470 м
[Cb cap]
+1.0 +1.0 100 -1 -1 1007.8 939.8
12 14.01 штиль 0 7000 м {ливн. осадки} 10/10 1410 м
[Sc]
+2.1 +2.1 100 +1 +1 1007.2 939.5
15 14.01 В 1 20 км 10/10 1500 м
[Sc]
+2.3 +2.3 100 0 0 1007.6 939.9 +2.4 4
18 14.01 В 1 2800 м 10/10 1140 м
[Sc]
+1.6 +1.6 100 -1 -1 1008.4 940.5
21 14.01 В 1 20 км 10/10 1500 м
[Sc]
+2.4 +2.0 97 +1 +1 1007.3 939.6
00 15.01 СВ 1 9000 м слаб. ливневой дождь 10/10 750 м
[Cb cap]
+1.9 +1.9 100 -0 -0 1009.5 941.6
03 15.01 СВ 1 13 км слаб. ливневой дождь 10/10 1350 м
[Cb cap]
+1.6 +1.6 100 -1 -1 1009.8 941.8 +1.5 4 28
06 15.01 В 1 13 км {ливн. осадки} 10/10 600 м
[Sc]
+2.1 +2.1 100 0 0 1009.6 941.7
09 15.01 В 2 15 км {ливн. осадки} 10/10 1000 м
[Sc]
+3.9 +2.7 92 +1 +1 1007.9 940.6
12 15.01 СВ 2 15 км {ливн. осадки} 10/10 1000 м
[Sc]
+4.3 +2.8 90 +1 +1 1006.3 939.2
15 15.01 СВ 2 19 км 10/10 1000 м
[Sc]
+4.7 +1.9 82 +2 +2 1004.4 937.5 +5.0 0.4
18 15.01 СВ 2 20 км 10/10 1000 м
[Sc]
+4.7 +1.7 81 +2 +2 1002.3 935.5
21 15.01 С 2 20 км в посл. час ливневой дождь 10/10 1000 м
[Cb calv]
+3.7 +3.3 97 +1 +1 1001.3 934.4
00 16.01 С 2 9000 м слаб. ливневой дождь 10/10 600 м
[Cb cap]
+4.2 +4.2 100 +1 +1 1001.4 934.6
03 16.01 СЗ 3 16 км слаб. ливневой дождь 10/10 1000 м
[Cb cap]
+4.7 +4.0 95 +1 +1 999.2 932.6 +3.0 6 21
06 16.01 З 5-11
{14}
4000 м ливневой дождь 10/10 480 м
[Cb cap]
+6.0 +3.7 85 +2 +2 1003.2 936.7
09 16.01 С 1
{10}
3800 м ливневой дождь 10/10 450 м
[Cb cap]
+2.5 +2.5 100 +1 +1 1006.7 939.1
12 16.01 З 1 1200 м ливневой снег 10/10 100 м
[Cb cap]
+0.5 +0.5 100 -2 -2 1007.4 939.3
15 16.01 штиль 0 1200 м ливневой снег 10/10 100 м
[Cb cap]
+0.2 +0.2 100 -1 -1 1008.6 940.3 +9.4 53
18 16.01 штиль 0 1100 м слаб. ливневой снег 10/10 60 м
[Cb cap]
-0.4 -0.4 100 -2 -2 1009.5 941.0
21 16.01 штиль 0 1000 м слаб. ливневой снег 10/10 90 м
[Cb cap]
-1.7 -1.7 100 -3 -3 1011.4 942.4
00 17.01 штиль 0 1100 м слаб. ливневой снег 10/10 100 м
[Cb cap]
-2.5 -2.5 100 -4 -4 1013.2 943.9
03 17.01 штиль 0 4500 м в посл. час ливневой снег 10/10 600 м
[Cb calv]
-2.6 -2.6 100 -4 -4 1014.9 945.5 -2.6 11 48
06 17.01 штиль 0 19 км {ливн. осадки} 8/3 1000 м
[Sc Ac cuf Ci sp]
-3.1 -3.8 95 -4 -4 1016.9 947.2 -3.2
09 17.01 штиль 0 20 км {туман} 8/4 600 м
[Cu hum Ac As Ci fib]
+0.7 -2.5 79 -0 +2 1016.8 948.0
12 17.01 штиль 0 20 км {туман} 6/1 600 м
[Cu med, cong Ci fib]
+1.7 -3.0 71 +1 +3 1017.2 948.6
15 17.01 В 1 17 км ясно -1.9 -2.5 96 -4 -4 1020.1 950.5 +2.3
18 17.01 СВ 1 20 км ясно -3.6 -4.7 92 -6 -6 1023.1 952.8
21 17.01 СВ 1 20 км ясно -4.8 -5.8 93 -7 -7 1025.2 954.5
00 18.01 СВ 2 20 км ясно -5.4 -6.5 92 -10 -10 1026.5 955.5
03 18.01 С 2 20 км ясно -6.2 -7.6 90 -11 -11 1027.0 955.8 -6.4 46
06 18.01 С 1 15 км ясно -6.0 -7.4 90 -8 -7 1028.1 956.9 -7.0
09 18.01 ЮВ 1 20 км ясно 0.0 -5.0 69 -2 +3 1026.4 956.8
12 18.01 ЮВ 1 20 км 1/1 600 м
[Cu hum]
+2.4 -3.5 65 +1 +3 1024.5 955.6
15 18.01 В 1 15 км ясно -1.7 -3.0 91 -4 -4 1025.8 955.8 +3.3
18 18.01 В 1 14 км ясно -3.2 -3.9 95 -6 -6 1026.3 955.9
21 18.01 С 1 20 км ясно -3.8 -5.1 91 -6 -6 1026.2 955.7
00 19.01 СВ 1 20 км 4/0
[Ac cast Ci fib]
-4.1 -5.1 93 -7 -7 1025.4 954.8
03 19.01 С 1 20 км ясно -5.6 -6.0 97 -8 -8 1025.1 954.2 -6.0 41
06 19.01 СВ 1 20 км 10/0
[Ac lent Ci fib]
-4.4 -5.4 93 -7 -6 1025.2 954.6 -6.3
09 19.01 Ю 1 20 км 10/0
[Ac und]
+2.0 -3.7 66 +1 +2 1023.3 954.4
12 19.01 штиль 0 20 км 10/0
[Ac As]
+3.2 -1.9 69 +2 +3 1022.4 953.9
15 19.01 С 1 20 км 10/0
[Ac As]
+0.6 +0.3 98 -2 -2 1024.0 954.8 +4.3
18 19.01 штиль 0 20 км 10/10 1000 м
[Sc]
+0.4 +0.1 98 -1 -1 1024.7 955.4
21 19.01 СВ 1 20 км 10/10 1500 м
[Sc]
+0.9 +0.2 95 -1 -1 1025.6 956.3
00 20.01 СВ 1 10 км слаб. ливневой дождь 10/10 600 м
[Cb cap]
+0.7 +0.7 100 -2 -2 1026.4 957.0
03 20.01 В 1 9000 м слаб. ливневой снег 10/10 540 м
[Cb cap]
+0.5 +0.5 100 -2 -2 1026.0 956.6 +0.2 2 36
06 20.01 штиль 0 8000 м слаб. ливневой снег 10/10 800 м
[Cb cap]
+0.7 +0.7 100 -1 -1 1026.1 956.7
09 20.01 ЮВ 1 4300 м {ливн. осадки, туман} 10/10 100 м
[Cb calv]
+1.4 +1.4 100 -1 -1 1026.3 957.1
12 20.01 штиль 0 13 км {ливн. осадки, туман} 10/10 600 м
[Sc]
+2.9 +2.2 95 +2 +2 1024.6 955.9
15 20.01 штиль 0 10 км в посл. час туман 8/3 1000 м
[Sc Ac As Ci sp]
+1.4 +1.4 100 0 0 1024.7 955.6 +3.4 3
18 20.01 штиль 0 7000 м {туман} 6/3 1000 м
[Sc Ac As Cs]
-0.3 -0.3 100 -2 -2 1025.2 955.6
21 20.01 В 1 14 км 9/3 1500 м
[Sc Ac cast Cs]
-0.1 -0.1 100 -2 -2 1025.2 955.7

 

Местоположение метеостанции Красная Поляна (Краснодарский край, Россия): широта 43.68 долгота 40.20 высота над уровнем моря 567 м.

В архиве по умолчанию представлена погода в Красной Поляне за последнюю неделю. Архивные данные за месяц целиком и за предыдущие месяцы, начиная с января 2011 года, Вы можете получить, выбрав интересующий диапазон дат из раскрывающегося списка и нажав кнопку "Ввод!".


*Определитесь, кто Вы:
робот инопланетянин человек

Внимание! Время в таблицах - всемирное. Для получения местного времени необходимо прибавить поправку, которая равна 3 ч.

Смотрите также архив погоды в соседних городах и на ближайших метеорологических станциях:

Погода в Горная Карусель 1500 (Краснодарский край, Россия) (8 км)
Погода в Горная Карусель 1000 (Краснодарский край, Россия) (8 км)
Погода на Кордоне Лаура (Краснодарский край, Россия) (8 км)
Погода в Кепше (Краснодарский край, Россия) (14 км)
Погода в Гузерипле (Адыгея, Россия) (36 км)
Погода в Сочи (Краснодарский край, Россия) (36 км)
Погода в Сочи аэропорт (Адлере) (Краснодарский край, Россия) (37 км)
Погода в Имеретинке (Краснодарский край, Россия) (37 км)
Погода в Солох Ауле (Краснодарский край, Россия) (48 км)
Погода в Кичмае (Краснодарский край, Россия) (58 км)

Пояснения к столбцам:

Ветер - указаны скорость ветра в м/с - средняя за 10 мин, порывы в срок и между сроками (в фигурных скобках) и направление, откуда дует ветер: С - северный, СВ - северо-восточный, В - восточный, ЮВ - юго-восточный, Ю - южный, ЮЗ - юго-западный, З - западный, СЗ - северо-западный.
Видимость - горизонтальная дальность видимости в метрах или километрах. При видимости от 1 до 10 км при отсутствии осадков обычно наблюдается дымка, при ухудшении видимости до 1 км и менее - туман. В сухую погоду видимость может ухудшаться дымом, пылью или мглою.
Явления - указаны атмосферные явления, наблюдавшиеся в срок или в последний час перед сроком; фигурными скобками обозначены явления, наблюдавшиеся между сроками (за 1-3 часа до срока); квадратными скобками обозначены град или гололедные отложения с указанием их диаметра в мм.
Облачность - указаны через наклонную черту общая и нижняя облачность в баллах и высота нижней границы облаков в метрах; квадратными скобками обозначены формы облаков: Ci - перистые, Cs - перисто-слоистые, Cc - перисто-кучевые, Ac - высококучевые, As - высокослоистые, Sc - слоисто-кучевые, Ns - слоисто-дождевые, Cu - кучевые, Cb - кучево-дождевые. Подробнее классификацию облаков см. в Атласе облаков (PDF).
T - Температура воздуха - температура, измеренная на высоте 2 м над землей.
Td - Температура точки росы - температура, при понижении до которой содержащийся в воздухе водяной пар достигнет насыщения.
f - Относительная влажность воздуха - влажноcть воздуха, измеренная на высоте 2 м над землей.
Te - Эффективная температура - температура, которую ощущает одетый по сезону человек в тени. Характеристика душности погоды. При расчете учитывается влияние влажности воздуха и скорости ветра на теплоощущения человека.
Tes - Эффективная температура на солнце - температура, которую ощущает человек, с поправкой на солнечный нагрев. Характеристика знойности погоды. Зависит от высоты солнца над горизонтом, облачности и скорости ветра. Ночью, в пасмурную погоду, а также при ветре 12 м/с и более поправка равна нулю.
P - Атмосферное давление - приведенное к уровню моря атмосферное давление.
Po - Атмосферное давление - измеренное на уровне метеостанции атмосферное давление.
Tmin - Минимальная температура - минимум температуры воздуха на высоте 2 м над землей.
Tmax - Максимальная температура - максимум температуры воздуха на высоте 2 м над землей.
R - Количество осадков - Количество выпавших осадков за период времени, мм. При наведении курсора мыши на число - период времени, за который выпало указанное количество осадков.
R24 - Количество осадков - Количество выпавших осадков за 24 часа, мм.
S - Снежный покров - Высота снежного покрова, см. При наведении курсора мыши на число - состояние снежного покрова и степень покрытия местности в баллах.